Weather reports worldwide

Advertisment
Castlederg, United Kingdom (3904): temperature & dewpoint: 06.11.2019 15:00:00 - 12.11.2019 15:00:00 (GMT)Castlederg, United Kingdom (3904): temperature -20cm: 06.11.2019 15:00:00 - 12.11.2019 15:00:00 (GMT)Castlederg, United Kingdom (3904): wind speed & gusts: 06.11.2019 15:00:00 - 12.11.2019 15:00:00 (GMT)Castlederg, United Kingdom (3904): wind direction: 06.11.2019 15:00:00 - 12.11.2019 15:00:00 (GMT)Castlederg, United Kingdom (3904): reduced air pressure: 06.11.2019 15:00:00 - 12.11.2019 15:00:00 (GMT)Castlederg, United Kingdom (3904): visibility: 06.11.2019 15:00:00 - 12.11.2019 15:00:00 (GMT)Castlederg, United Kingdom (3904): precipitation: 06.11.2019 15:00:00 - 12.11.2019 15:00:00 (GMT)
Date & Time tt [°C] td [°C] tt -20cm [°C] ff [km/h] ff [kn] fx [km/h] fx [kn] dd ppp [hPa] vv [km] rr [mm]
12.11.2019 15:00:00 6,8 5,2 - 15 8 - - NW 1002,8 11 0,4
12.11.2019 14:00:00 7,6 4,8 - 13 7 - - WNW 1002,3 18 0,0
12.11.2019 13:00:00 8,0 5,0 - 15 8 - - W 1002,1 40 0,0
12.11.2019 12:00:00 8,5 4,1 - 21 11 - - NW 1001,9 50 0,0
12.11.2019 11:00:00 8,2 4,8 - 16 9 - - WNW 1001,8 30 0,0
12.11.2019 10:00:00 7,2 5,1 - 11 6 - - W 1001,2 30 0,0
12.11.2019 09:00:00 6,1 4,7 7,4 13 7 - - WNW 1000,5 24 0,0
12.11.2019 08:00:00 5,9 4,8 - 13 7 - - W 999,6 26 1,4
12.11.2019 07:00:00 5,8 4,4 - 21 11 52 28 WNW 998,6 17 0,8
12.11.2019 06:00:00 5,6 4,2 - 22 12 50 27 WNW 999,1 7 3,6
12.11.2019 05:00:00 6,5 3,2 - 18 10 48 26 WNW 998,2 12 0,4
12.11.2019 04:00:00 6,6 2,0 - 22 12 55 30 W 998,3 14 0,0
12.11.2019 03:00:00 5,5 1,7 - 28 15 54 29 W 998,6 35 0,0
12.11.2019 02:00:00 5,6 2,2 - 24 13 52 28 W 998,7 21 0,0
12.11.2019 01:00:00 5,2 1,6 - 29 16 54 29 W 999,0 24 0,4
12.11.2019 00:00:00 4,7 1,2 - 21 11 - - W 999,2 40 0,4
11.11.2019 23:00:00 5,1 1,8 - 24 13 55 30 W 999,3 24 0,2
11.11.2019 22:00:00 4,7 1,8 - 18 10 54 29 W 999,6 11 0,2
11.11.2019 21:00:00 4,5 2,3 - 16 9 - - W 999,8 15 0,2
11.11.2019 20:00:00 5,2 2,4 - 16 9 - - W 999,9 15 0,0
11.11.2019 19:00:00 4,1 0,4 - 18 10 - - W 999,6 45 0,0
11.11.2019 18:00:00 4,1 2,0 - 13 7 - - WSW 999,8 20 0,0
11.11.2019 17:00:00 5,2 2,1 - 13 7 - - WNW 999,9 24 0,2
11.11.2019 16:00:00 5,5 3,2 - 11 6 - - WNW 999,8 11 0,6
11.11.2019 15:00:00 5,8 2,7 - 16 9 - - W 999,8 45 0,2
11.11.2019 14:00:00 7,4 2,4 - 22 12 - - W 999,7 24 0,0
11.11.2019 13:00:00 6,2 3,7 - 24 13 - - W 1000,0 18 0,6
11.11.2019 12:00:00 6,8 3,4 - 22 12 - - W 1000,2 9 0,0
11.11.2019 11:00:00 6,4 3,5 - 16 9 - - W 1000,0 24 0,0
11.11.2019 10:00:00 5,9 3,4 - 28 15 57 31 W 1000,1 35 0,0
11.11.2019 09:00:00 6,1 3,9 7,4 18 10 - - W 999,9 22 0,4
11.11.2019 08:00:00 5,4 3,1 - 22 12 - - W 999,7 5 0,2
11.11.2019 07:00:00 6,5 3,4 - 24 13 - - W 999,4 17 0,0
11.11.2019 06:00:00 5,5 3,3 - 18 10 52 28 W 999,1 20 0,4
11.11.2019 05:00:00 5,2 3,5 - 8 4 - - W 998,9 14 1,2
11.11.2019 04:00:00 6,0 3,5 - 21 11 52 28 W 999,1 12 0,6
11.11.2019 03:00:00 5,2 2,5 - 16 9 61 33 W 998,2 29 0,4
11.11.2019 02:00:00 5,6 3,0 - 18 10 46 25 W 998,1 26 0,4
11.11.2019 01:00:00 5,8 4,1 - 22 12 48 26 W 998,0 16 1,4
11.11.2019 00:00:00 4,5 3,8 - 8 4 - - SW 997,7 7 1,2
10.11.2019 23:00:00 4,3 3,5 - 8 4 - - WSW 997,3 26 1,0
10.11.2019 22:00:00 5,1 4,2 - 26 14 55 30 SSW 997,7 8 1,0
10.11.2019 21:00:00 3,9 2,8 - 41 22 63 34 SSE 998,2 14 0,8
10.11.2019 20:00:00 2,9 2,3 - 29 16 - - SE 1000,1 5 1,8
10.11.2019 19:00:00 2,9 2,3 - 26 14 48 26 SE 1003,4 5 4,6
10.11.2019 18:00:00 3,9 2,8 - 22 12 48 26 SSE 1006,1 7 2,4
10.11.2019 17:00:00 4,8 2,5 - 15 8 - - SSE 1008,5 40 0,0
10.11.2019 16:00:00 4,1 2,8 - 8 4 - - E 1008,6 45 0,0
10.11.2019 15:00:00 4,0 2,8 - 13 7 - - E 1009,3 35 0,0
10.11.2019 14:00:00 3,8 3,5 - 9 5 - - ESE 1011,8 35 0,0
10.11.2019 13:00:00 3,4 3,3 - 8 4 - - ESE 1013,7 30 0,0
10.11.2019 12:00:00 1,1 1,1 - 2 1 - - E 1015,4 14 0,2
10.11.2019 11:00:00 -1,1 -1,1 - 0 0 - - N 1016,6 0,2 0,0
10.11.2019 10:00:00 -2,3 -2,3 - 0 0 - - N 1017,4 0,3 0,0
10.11.2019 09:00:00 -2,4 -2,5 8,0 0 0 - - N 1017,7 0,2 0,0
10.11.2019 08:00:00 -2,7 -2,8 - 0 0 - - N 1017,5 0,2 0,0
10.11.2019 07:00:00 -2,8 -2,9 - 0 0 - - N 1017,6 0,3 0,0
10.11.2019 06:00:00 -2,4 -2,5 - 0 0 - - N 1017,3 0,2 0,0
10.11.2019 05:00:00 -1,8 -1,9 - 0 0 - - N 1016,9 0,6 0,0
10.11.2019 04:00:00 -1,8 -1,9 - 0 0 - - N 1016,1 0,2 0,0
10.11.2019 03:00:00 -0,4 -0,6 - 5 3 - - W 1016,0 2,7 0,0
10.11.2019 02:00:00 -0,6 -0,9 - 2 1 - - W 1015,1 1,8 0,0
10.11.2019 01:00:00 0,6 0,4 - 2 1 - - S 1014,5 2,8 0,0
10.11.2019 00:00:00 1,5 1,2 - 2 1 - - N 1013,9 4,6 0,0
09.11.2019 23:00:00 2,6 2,2 - 2 1 - - NNW 1012,8 6 0,0
09.11.2019 22:00:00 3,3 2,9 - 2 1 - - ENE 1011,9 6 0,0
09.11.2019 21:00:00 3,5 3,1 - 4 2 - - NE 1010,7 9 0,2
09.11.2019 20:00:00 3,5 3,1 - 5 3 - - NE 1009,4 11 0,6
09.11.2019 19:00:00 3,6 3,2 - 9 5 - - ENE 1008,7 5 0,4
09.11.2019 18:00:00 3,9 3,3 - 5 3 - - ENE 1007,7 12 0,2
09.11.2019 17:00:00 4,0 3,3 - 11 6 - - ENE 1006,7 50 1,0
09.11.2019 16:00:00 4,4 3,8 - 9 5 - - E 1005,2 11 0,4
09.11.2019 15:00:00 4,8 4,2 - 8 4 - - E 1004,4 21 2,2
09.11.2019 14:00:00 5,2 4,4 - 11 6 - - ENE 1003,6 4,8 2,2
09.11.2019 13:00:00 6,4 5,4 - 9 5 - - ENE 1002,9 29 0,0
09.11.2019 12:00:00 6,3 5,3 - 5 3 - - N 1002,4 10 0,2
09.11.2019 11:00:00 5,8 5,4 - 5 3 - - WSW 1001,8 35 0,0
09.11.2019 10:00:00 5,2 4,9 - 5 3 - - W 1001,1 28 0,0
09.11.2019 09:00:00 5,0 4,8 8,0 4 2 - - WNW 1000,4 13 0,0
09.11.2019 08:00:00 4,8 4,5 - 2 1 - - WNW 999,6 3,1 0,0
09.11.2019 07:00:00 4,6 4,2 - 5 3 - - E 999,3 11 0,6
09.11.2019 06:00:00 4,6 4,0 - 16 9 - - ESE 999,5 10 1,2
09.11.2019 05:00:00 4,4 3,7 - 22 12 - - SE 999,9 21 2,4
09.11.2019 04:00:00 4,5 3,4 - 26 14 - - SE 1000,9 2,9 2,6
09.11.2019 03:00:00 5,2 3,5 - 15 8 - - SE 1002,8 5 1,0
09.11.2019 02:00:00 4,6 2,3 - 18 10 - - SE 1004,1 40 0,0
09.11.2019 01:00:00 3,8 1,9 - 22 12 - - SE 1005,4 35 0,0
09.11.2019 00:00:00 2,9 0,8 - 16 9 - - ESE 1006,9 30 0,0
08.11.2019 23:00:00 2,1 0,1 - 13 7 - - SE 1008,5 40 0,0
08.11.2019 22:00:00 2,2 0,1 - 13 7 - - SE 1009,8 30 0,0
08.11.2019 21:00:00 2,0 0,1 - 9 5 - - SE 1010,8 29 0,0
08.11.2019 20:00:00 2,2 0,2 - 11 6 - - ESE 1010,7 23 0,0
08.11.2019 19:00:00 1,7 -0,3 - 4 2 - - E 1012,1 27 0,0
08.11.2019 18:00:00 2,6 0,4 - 2 1 - - ENE 1012,9 23 0,0
08.11.2019 17:00:00 3,0 0,2 - 5 3 - - E 1012,3 16 0,0
08.11.2019 16:00:00 5,0 0,9 - 2 1 - - ESE 1012,8 23 0,0
08.11.2019 15:00:00 7,6 0,7 - 5 3 - - E 1013,0 17 0,0
08.11.2019 14:00:00 8,8 1,2 - 4 2 - - SSE 1013,3 35 0,0
08.11.2019 13:00:00 8,7 1,9 - 2 1 - - SE 1013,7 40 0,0
08.11.2019 12:00:00 7,5 3,3 - 2 1 - - SW 1014,0 40 0,0
08.11.2019 11:00:00 4,7 2,3 - 2 1 - - SW 1014,4 40 0,0
08.11.2019 10:00:00 2,6 1,9 - 4 2 - - WSW 1014,5 40 0,0
08.11.2019 09:00:00 -0,7 -1,0 8,7 4 2 - - W 1014,6 35 0,0
08.11.2019 08:00:00 -0,7 -1,0 - 4 2 - - W 1014,2 23 0,0
08.11.2019 07:00:00 -0,2 -0,5 - 5 3 - - W 1013,6 35 0,0
08.11.2019 06:00:00 0,4 0,0 - 5 3 - - W 1013,0 35 0,0
08.11.2019 05:00:00 1,1 0,5 - 2 1 - - NNW 1012,5 40 0,0
08.11.2019 04:00:00 1,8 0,9 - 2 1 - - ESE 1011,8 50 0,0
08.11.2019 03:00:00 2,7 1,2 - 4 2 - - N 1011,4 50 0,0
08.11.2019 02:00:00 5,0 1,2 - 8 4 - - NE 1010,5 50 0,0
08.11.2019 01:00:00 5,1 1,6 - 9 5 - - NE 1010,1 50 0,0
08.11.2019 00:00:00 5,5 2,3 - 5 3 - - NNE 1009,2 50 0,0
07.11.2019 23:00:00 5,9 3,0 - 15 8 - - NNE 1008,1 45 0,0
07.11.2019 22:00:00 5,3 3,2 - 11 6 - - NE 1007,3 50 0,0
07.11.2019 21:00:00 5,9 3,7 - 8 4 - - NNE 1006,5 27 0,0
07.11.2019 20:00:00 6,0 4,5 - 9 5 - - NE 1005,1 45 0,0
07.11.2019 19:00:00 6,9 5,4 - 11 6 - - NE 1003,9 40 0,0
07.11.2019 18:00:00 6,8 6,0 - 5 3 - - N 1003,0 35 0,2
07.11.2019 17:00:00 6,9 5,9 - 9 5 - - N 1001,7 21 0,0
07.11.2019 16:00:00 6,9 5,9 - 11 6 - - N 1000,5 50 0,0
07.11.2019 15:00:00 6,8 5,7 - 11 6 - - N 999,6 50 0,0
07.11.2019 14:00:00 6,9 5,6 - 11 6 - - N 999,0 13 0,2
07.11.2019 13:00:00 7,6 4,7 - 13 7 - - N 998,1 50 0,0
07.11.2019 12:00:00 6,8 5,2 - 13 7 - - N 997,7 50 0,0
07.11.2019 11:00:00 5,9 4,5 - 5 3 - - NNW 997,1 45 0,0
07.11.2019 10:00:00 5,2 3,5 - 5 3 - - N 996,4 35 0,0
07.11.2019 09:00:00 4,8 3,7 9,0 9 5 - - N 995,8 45 0,0
07.11.2019 08:00:00 3,9 3,4 - 9 5 - - N 995,1 35 0,0
07.11.2019 07:00:00 3,9 3,0 - 5 3 - - N 994,3 35 0,0
07.11.2019 06:00:00 3,4 2,9 - 5 3 - - N 993,8 25 0,0
07.11.2019 05:00:00 3,3 2,4 - 5 3 - - E 993,4 19 0,0
07.11.2019 04:00:00 3,8 2,5 - 8 4 - - N 993,1 25 0,2
07.11.2019 03:00:00 4,5 3,3 - 5 3 - - NE 993,0 13 0,0
07.11.2019 02:00:00 4,4 3,5 - 4 2 - - ENE 993,2 13 0,0
07.11.2019 01:00:00 4,6 3,7 - 4 2 - - NE 993,3 13 0,2
07.11.2019 00:00:00 4,2 3,7 - 2 1 - - E 993,5 9 0,0
06.11.2019 23:00:00 4,6 3,8 - 2 1 - - ENE 993,8 5 0,2
06.11.2019 22:00:00 4,7 3,8 - 4 2 - - E 994,2 17 0,2
06.11.2019 21:00:00 5,1 3,9 - 9 5 - - NE 994,6 8 0,0
06.11.2019 20:00:00 5,5 4,5 - 9 5 - - ENE 994,7 19 0,0
06.11.2019 19:00:00 6,0 5,1 - 9 5 - - ENE 995,1 10 0,4
06.11.2019 18:00:00 6,1 4,8 - 5 3 - - ENE 995,3 35 0,0
06.11.2019 17:00:00 6,3 4,5 - 8 4 - - E 995,8 45 0,0
06.11.2019 16:00:00 7,4 4,7 - 8 4 - - E 996,5 27 0,0
06.11.2019 15:00:00 7,7 5,4 - 8 4 - - ESE 997,2 45 0,0

tt = temperature
td = dewpoint
tt -20cm = temperature -20cm
ff = wind speed
fx = gusts
dd = wind direction
ppp = reduced air pressure
vv = visibility
rr = precipitation

Next stations